Location: Glendo
(42.5037°N, 105.0248°W)
Time: 04:27:57
(UTC+00:00)

Envisat - Pass Details

Date: 30 January 2022
Orbit: 764 x 765 km, 98.2° (Epoch: 21 May)

Event Time Altitude Azimuth Distance (km) Brightness Sun altitude
Rises 11:49:37 0° 14° (NNE) 3,240 6.4 -27.1°
Reaches altitude 10° 11:51:56 10° 16° (NNE) 2,310 5.6 -26.7°
Maximum altitude 11:57:02 78° 102° (ESE) 785 3.0 -25.7°
Drops below altitude 10° 12:02:06 10° 190° (S) 2,294 5.4 -24.8°
Sets 12:04:23 0° 191° (SSW) 3,217 6.1 -24.4°
